This is the latest recevied weather packets stored in our database for station/object SV9TNF-56. If no packets are shown the sender has not sent any weather packets the latest 10 day(s).
| Time | Temp. | Humidity | Pressure | Rain* | Wind** | Luminosity | Snow |
|---|---|---|---|---|---|---|---|
| 1788503075 | 24.44° C | 72% | 1010.5 hPa | 0 mm | 24.59 m/s, 252° | - | - |
| 1788502775 | 24.44° C | 73% | 1010.5 hPa | 0 mm | 28.61 m/s, 300° | - | - |
| 1788502475 | 24.44° C | 74% | 1010.5 hPa | 0 mm | 30.85 m/s, 300° | - | - |
| 1788502175 | 24.44° C | 74% | 1010.2 hPa | 0 mm | 27.72 m/s, 271° | - | - |
| 1788501875 | 24.44° C | 74% | 1010.2 hPa | 0 mm | 18.33 m/s, 284° | - | - |
| 1788501575 | 24.44° C | 73% | 1010.5 hPa | 0 mm | 20.56 m/s, 245° | - | - |
| 1788501275 | 24.44° C | 73% | 1010.5 hPa | 0 mm | 36.21 m/s, 312° | - | - |
| 1788500974 | 24.44° C | 73% | 1010.2 hPa | 0 mm | 12.96 m/s, 275° | - | - |
| 1788500675 | 24.44° C | 74% | 1010.5 hPa | 0 mm | 35.76 m/s, 277° | - | - |
| 1788500374 | 24.44° C | 74% | 1010.5 hPa | 0 mm | 25.48 m/s, 290° | - | - |
| 1788500074 | 24.44° C | 74% | 1010.2 hPa | 0 mm | 20.56 m/s, 312° | - | - |
| 1788499774 | 23.89° C | 74% | 1010.2 hPa | 0 mm | 24.59 m/s, 300° | - | - |
| 1788499474 | 23.89° C | 75% | 1010.2 hPa | 0 mm | 25.93 m/s, 340° | - | - |
| 1788499174 | 23.89° C | 75% | 1010.2 hPa | 0 mm | 24.59 m/s, 240° | - | - |
| 1788498874 | 23.89° C | 75% | 1009.8 hPa | 0 mm | 29.06 m/s, 328° | - | - |
| 1788498574 | 23.89° C | 75% | 1010.2 hPa | 0 mm | 28.61 m/s, 300° | - | - |
| 1788498274 | 23.89° C | 75% | 1010.2 hPa | 0 mm | 34.42 m/s, 284° | - | - |
| 1788497973 | 23.89° C | 75% | 1010.5 hPa | 0 mm | 27.27 m/s, 284° | - | - |
| 1788497674 | 23.89° C | 75% | 1010.2 hPa | 0 mm | 26.38 m/s, 232° | - | - |
| 1788497373 | 23.89° C | 75% | 1010.2 hPa | 0 mm | 29.06 m/s, 306° | - | - |
| 1788497073 | 23.89° C | 75% | 1010.2 hPa | 0 mm | 24.14 m/s, 296° | - | - |
| 1788496773 | 23.89° C | 75% | 1010.2 hPa | 0 mm | 24.14 m/s, 295° | - | - |
| 1788496473 | 23.89° C | 75% | 1009.8 hPa | 0 mm | 15.2 m/s, 312° | - | - |
| 1788496173 | 23.89° C | 75% | 1010.2 hPa | 0 mm | 20.56 m/s, 18° | - | - |
| 1788495873 | 23.89° C | 75% | 1009.8 hPa | 0 mm | 25.48 m/s, 265° | - | - |
* Rain latest hour (hover to see other rain measurements)
** Current wind speed in m/s (hover to see current wind gust speed)